Newark, NJ

1:07 AM EDT on August 25, 2016 (GMT -0400)
Newark International

Weather History for KEWR - October, 2011

Change the Weather History Date:

Saturday, October 15, 2011

  Actual Average Record
Temperature  
Mean Temperature 61 °F 57 °F  
Max Temperature 69 °F 66 °F 86 °F (1956)
Min Temperature 53 °F 48 °F 32 °F (1937)
Degree Days  
Heating Degree Days 4 9  
Month to date heating degree days 51 99  
Since 1 July heating degree days 70 144  
Cooling Degree Days 0 0  
Month to date cooling degree days 22 14  
Year to date cooling degree days 1585 1188  
Growing Degree Days 10 (Base 50)    
Moisture  
Dew Point 40 °F    
Average Humidity 51    
Maximum Humidity 71    
Minimum Humidity 30    
Precipitation  
Precipitation 0.00 in 0.12 in 1.76 in (1943)
Month to date precipitation 2.35 1.78  
Year to date precipitation 58.42 36.97  
Snow  
Snow 0.00 in 0.00 in 0.00 in (2002)
Month to date snowfall 0.0 0.0  
Since 1 July snowfall T 0.0  
Snow Depth 0.00 in    
Sea Level Pressure  
Sea Level Pressure 29.65 in    
Wind  
Wind Speed 16 mph (SW)    
Max Wind Speed 32 mph    
Max Gust Speed 40 mph    
Visibility 10 miles    
Events      
T = Trace of Precipitation, MM = Missing Value Source: NWS Daily Summary

Daily Weather History Graph

Daily Weather History Graph

Search for Another Location

Airport or City:

Trip Planner

Search our weather history database for the weather conditions in past years. The results will help you decide how hot, cold, wet, or windy it might be!

Date:

Astronomy

Oct. 15, 2011 Rise Set
Actual Time 7:07 AM EDT 6:16 PM EDT
Civil Twilight 6:39 AM EDT 6:44 PM EDT
Nautical Twilight 6:08 AM EDT 7:16 PM EDT
Astronomical Twilight 5:36 AM EDT 7:47 PM EDT
Moon 8:10 PM EDT (10/15) 10:30 AM EDT (10/15)
Length of Visible Light 12h 04m
Length of Day
11h 09m
Waning Gibbous, 89% of the Moon is Illuminated
Oct 15
Waning Gibbous
Oct 19
Last Quarter
Oct 26
New
Nov 2
First Quarter
Nov 10
Full

Hourly Weather History & Observations

Time (EDT) Temp. Dew Point Humidity Pressure Visibility Wind Dir Wind Speed Gust Speed Precip Events Conditions
12:51 AM 57.9 °F 46.9 °F 67% 29.57 in 10.0 mi SW 17.3 mph - N/A   Clear
1:51 AM 57.0 °F 45.0 °F 64% 29.58 in 10.0 mi SW 13.8 mph - N/A   Clear
2:51 AM 55.9 °F 43.0 °F 62% 29.59 in 10.0 mi SW 11.5 mph - N/A   Clear
3:51 AM 54.0 °F 43.0 °F 66% 29.60 in 10.0 mi SW 10.4 mph - N/A   Clear
4:51 AM 55.0 °F 43.0 °F 64% 29.62 in 10.0 mi SW 12.7 mph - N/A   Clear
5:51 AM 53.6 °F 42.8 °F 67% 29.64 in 10.0 mi SW 11.5 mph - N/A   Clear
6:51 AM 54.0 °F 43.0 °F 66% 29.64 in 10.0 mi SW 11.5 mph - N/A   Partly Cloudy
7:51 AM 54.0 °F 44.1 °F 69% 29.65 in 10.0 mi SW 11.5 mph - N/A   Mostly Cloudy
8:51 AM 57.2 °F 44.6 °F 63% 29.65 in 10.0 mi SW 20.7 mph 26.5 mph N/A   Scattered Clouds
9:51 AM 61.0 °F 43.0 °F 52% 29.66 in 10.0 mi SW 20.7 mph 33.4 mph N/A   Scattered Clouds
10:51 AM 64.0 °F 42.1 °F 45% 29.65 in 10.0 mi SW 26.5 mph 36.8 mph N/A   Scattered Clouds
11:51 AM 66.0 °F 37.9 °F 36% 29.64 in 10.0 mi SW 26.5 mph 40.3 mph N/A   Mostly Cloudy
12:51 PM 66.9 °F 37.9 °F 34% 29.63 in 10.0 mi WSW 29.9 mph 36.8 mph N/A   Mostly Cloudy
1:51 PM 66.0 °F 39.0 °F 37% 29.61 in 10.0 mi WSW 19.6 mph 31.1 mph N/A   Mostly Cloudy
2:51 PM 68.0 °F 37.0 °F 32% 29.60 in 10.0 mi SW 26.5 mph 34.5 mph N/A   Scattered Clouds
3:51 PM 68.0 °F 35.6 °F 30% 29.61 in 10.0 mi WSW 21.9 mph 33.4 mph N/A   Mostly Cloudy
4:51 PM 66.9 °F 35.1 °F 31% 29.63 in 10.0 mi West 17.3 mph 34.5 mph N/A   Mostly Cloudy
5:51 PM 66.0 °F 35.1 °F 32% 29.65 in 10.0 mi West 17.3 mph 24.2 mph N/A   Scattered Clouds
6:51 PM 63.0 °F 35.1 °F 35% 29.68 in 10.0 mi SW 10.4 mph - N/A   Scattered Clouds
7:51 PM 62.1 °F 36.0 °F 38% 29.71 in 10.0 mi SW 9.2 mph - N/A   Scattered Clouds
8:51 PM 60.1 °F 37.0 °F 42% 29.75 in 10.0 mi West 5.8 mph - N/A   Scattered Clouds
9:51 PM 55.4 °F 37.4 °F 51% 29.77 in 10.0 mi SW 4.6 mph - N/A   Scattered Clouds
10:51 PM 55.9 °F 37.9 °F 51% 29.78 in 10.0 mi SW 9.2 mph - N/A   Scattered Clouds
11:51 PM 57.2 °F 37.4 °F 48% 29.79 in 10.0 mi SW 10.4 mph - N/A   Scattered Clouds